Simultaneous Nadir Overpasses (SNOs) Predictions

Prediction of SNOs between LANDSAT-8 and TERRA Satellite Orbit:

Table of predicted SNOs for the next 14.0 days since TLE Epoch: 8/24/2024
Index Date (LANDSAT-8) Time (LANDSAT-8) Lat,Lon (LANDSAT-8) SZA (LANDSAT-8 ) Date (TERRA) Time (TERRA) Lat,Lon (TERRA) SZA (TERRA ) Distance(km) Time Diff (sec)
1 09/01/2024 04:05:58 81.78,-172.72 78.98 09/01/2024 04:07:10 81.78,-172.84 79.01 2.00 72
2 09/01/2024 04:55:25 -81.78, -5.22 101.03 09/01/2024 04:56:30 -81.78, -5.08 100.97 2.41 65
3 09/01/2024 05:44:51 81.78, 162.56 79.01 09/01/2024 05:45:51 81.78, 162.64 79.05 1.28 60
4 09/01/2024 06:34:18 -81.78, -29.94 101.00 09/01/2024 06:35:12 -81.79, -30.01 100.98 1.15 54
5 09/01/2024 07:23:44 81.78, 137.84 79.03 09/01/2024 07:24:33 81.78, 137.71 79.04 2.27 49
6 09/01/2024 08:13:11 -81.78, -54.66 100.98 09/01/2024 08:13:53 -81.78, -54.52 100.93 2.21 42
7 09/01/2024 09:02:36 81.78, 113.12 79.06 09/01/2024 09:03:13 81.78, 113.19 79.09 1.03 37
8 09/01/2024 09:52:02 -81.77, -78.96 100.90 09/01/2024 09:52:33 -81.77, -79.04 100.89 1.30 31
9 09/01/2024 10:41:28 81.77, 88.83 79.14 09/01/2024 10:41:54 81.77, 88.67 79.13 2.52 26
10 09/01/2024 11:30:55 -81.77,-103.68 100.87 09/01/2024 11:31:14 -81.77,-103.56 100.85 1.98 19
11 09/01/2024 12:20:21 81.77, 64.11 79.17 09/01/2024 12:20:35 81.77, 64.15 79.18 0.83 14
12 09/01/2024 13:09:48 -81.77,-128.40 100.85 09/01/2024 13:09:56 -81.78,-128.49 100.85 1.53 8
13 09/01/2024 13:59:14 81.77, 39.39 79.19 09/01/2024 13:59:17 81.78, 39.22 79.17 2.76 3
14 09/01/2024 14:48:41 -81.77,-153.12 100.82 09/01/2024 14:48:37 -81.77,-153.01 100.81 1.76 4
15 09/01/2024 15:38:07 81.77, 14.66 79.22 09/01/2024 15:37:58 81.77, 14.70 79.22 0.50 9
16 09/01/2024 16:27:33 -81.77,-177.42 100.74 09/01/2024 16:27:18 -81.77,-177.53 100.76 1.75 15
17 09/01/2024 17:16:59 81.77, -9.63 79.30 09/01/2024 17:16:39 81.77, -9.82 79.26 3.04 20
18 09/01/2024 18:06:26 -81.77, 157.86 100.71 09/01/2024 18:05:59 -81.76, 157.95 100.72 1.56 27
19 09/01/2024 18:55:53 81.77, -34.78 79.27 09/01/2024 18:55:21 81.78, -34.76 79.25 0.48 32
20 09/01/2024 19:45:19 -81.77, 133.14 100.69 09/01/2024 19:44:41 -81.77, 133.02 100.73 1.96 38
21 09/01/2024 20:34:45 81.77, -59.08 79.35 09/01/2024 20:34:02 81.77, -59.28 79.30 3.28 43
22 09/01/2024 21:24:12 -81.77, 108.42 100.66 09/01/2024 21:23:22 -81.77, 108.50 100.68 1.30 50
23 09/01/2024 22:13:38 81.77, -83.80 79.37 09/01/2024 22:12:43 81.77, -83.80 79.34 0.06 55
24 09/01/2024 23:03:04 -81.76, 84.12 100.58 09/01/2024 23:02:03 -81.76, 83.98 100.64 2.22 61
25 09/01/2024 23:52:31 81.77,-108.52 79.40 09/01/2024 23:51:24 81.76,-108.32 79.39 3.24 67



Historial Predications of SNOs between LANDSAT-8 and TERRA
